EZY1923 EGPH-EIDW

Flight info

Callsign EZY1923
Flight time 0h 51m
Altitude 22000
Route GOSAM P600 TRN/N0358F240 P600 BLACA P620 NIMAT NIMAT3R
Aircraft A20N/M-SDE2E3FGHIRWXY/LB1

Departure

Time 2026-04-21 20:46
Airport Edinburgh Airport (EGPH)

Arrival

Time 2026-04-21 21:38
Airport Dublin Airport (EIDW)
Time Latitude Longitude Altitude Speed Heading
2026-04-21 20:29 55.94752 -3.36604 112 ft 0 kts 89°
2026-04-21 20:36 55.94752 -3.36605 112 ft 1 kts 89°
2026-04-21 20:36 55.94751 -3.36634 111 ft 2 kts 88°
2026-04-21 20:37 55.94751 -3.36663 112 ft 2 kts 86°
2026-04-21 20:37 55.94749 -3.36692 111 ft 2 kts 82°
2026-04-21 20:37 55.94746 -3.36721 113 ft 2 kts 65°
2026-04-21 20:37 55.94735 -3.36738 112 ft 1 kts 359°
2026-04-21 20:38 55.94733 -3.36738 116 ft 0 kts 359°
2026-04-21 20:38 55.94748 -3.36742 116 ft 3 kts 343°
2026-04-21 20:39 55.94785 -3.36774 114 ft 9 kts 348°
2026-04-21 20:39 55.94864 -3.36781 116 ft 13 kts 354°
2026-04-21 20:39 55.94927 -3.36875 113 ft 12 kts 272°
2026-04-21 20:39 55.94882 -3.37024 113 ft 16 kts 239°
2026-04-21 20:40 55.94825 -3.37196 112 ft 16 kts 239°
2026-04-21 20:40 55.94766 -3.37370 113 ft 17 kts 239°
2026-04-21 20:40 55.94703 -3.37552 114 ft 16 kts 239°
2026-04-21 20:40 55.94644 -3.37729 114 ft 17 kts 239°
2026-04-21 20:41 55.94584 -3.37902 114 ft 17 kts 238°
2026-04-21 20:41 55.94521 -3.38093 113 ft 13 kts 238°
2026-04-21 20:41 55.94466 -3.38252 113 ft 17 kts 238°
2026-04-21 20:41 55.94399 -3.38449 114 ft 17 kts 238°
2026-04-21 20:42 55.94334 -3.38643 112 ft 18 kts 239°
2026-04-21 20:42 55.94280 -3.38808 113 ft 11 kts 251°
2026-04-21 20:42 55.94322 -3.38904 113 ft 10 kts 329°
2026-04-21 20:42 55.94327 -3.38910 114 ft 0 kts 329°
2026-04-21 20:44 55.94339 -3.38922 114 ft 6 kts 329°
2026-04-21 20:45 55.94403 -3.38973 111 ft 10 kts
2026-04-21 20:45 55.94442 -3.38892 111 ft 0 kts 57°
2026-04-21 20:46 55.94442 -3.38891 111 ft 1 kts 57°
2026-04-21 20:46 55.94562 -3.38540 112 ft 78 kts 59°
2026-04-21 20:46 55.94970 -3.37326 208 ft 140 kts 60°
2026-04-21 20:46 55.95487 -3.35765 936 ft 149 kts 60°
2026-04-21 20:47 55.96008 -3.34202 1971 ft 147 kts 60°
2026-04-21 20:47 55.96705 -3.32751 2637 ft 165 kts 43°
2026-04-21 20:47 55.97693 -3.31465 3177 ft 189 kts 38°
2026-04-21 20:47 55.98823 -3.30018 3735 ft 210 kts 40°
2026-04-21 20:48 56.00057 -3.28388 4382 ft 233 kts 32°
2026-04-21 20:48 56.01710 -3.27648 5056 ft 261 kts
2026-04-21 20:48 56.03529 -3.28388 5375 ft 274 kts 337°
2026-04-21 20:48 56.05005 -3.30557 5489 ft 282 kts 309°
2026-04-21 20:49 56.05801 -3.33781 5605 ft 287 kts 280°
2026-04-21 20:49 56.05713 -3.37321 5714 ft 288 kts 252°
2026-04-21 20:49 56.04740 -3.40417 6075 ft 288 kts 226°
2026-04-21 20:49 56.03391 -3.43048 7092 ft 286 kts 226°
2026-04-21 20:50 56.02208 -3.45936 8108 ft 291 kts 237°
2026-04-21 20:50 56.01308 -3.49178 9078 ft 296 kts 246°
2026-04-21 20:50 56.00614 -3.52729 10019 ft 303 kts 251°
2026-04-21 20:50 56.00052 -3.56334 10903 ft 310 kts 253°
2026-04-21 20:51 55.99499 -3.60196 11340 ft 332 kts 254°
2026-04-21 20:51 55.98914 -3.64322 11724 ft 352 kts 254°
2026-04-21 20:51 55.98299 -3.68600 12511 ft 358 kts 254°
2026-04-21 20:51 55.97672 -3.72918 13419 ft 361 kts 254°
2026-04-21 20:52 55.97031 -3.77285 14287 ft 365 kts 254°
2026-04-21 20:52 55.96381 -3.81691 15033 ft 369 kts 254°
2026-04-21 20:52 55.95721 -3.86141 15780 ft 374 kts 253°
2026-04-21 20:52 55.95060 -3.90587 16573 ft 376 kts 253°
2026-04-21 20:53 55.94375 -3.95184 17333 ft 379 kts 253°
2026-04-21 20:53 55.93561 -3.99678 18007 ft 383 kts 242°
2026-04-21 20:53 55.92056 -4.03573 18725 ft 382 kts 224°
2026-04-21 20:53 55.90062 -4.06695 19367 ft 382 kts 214°
2026-04-21 20:54 55.88634 -4.08523 19812 ft 383 kts 212°
2026-04-21 20:54 55.86405 -4.11168 20428 ft 386 kts 210°
2026-04-21 20:54 55.84137 -4.13803 21042 ft 390 kts 211°
2026-04-21 20:54 55.81866 -4.16469 21679 ft 393 kts 211°
2026-04-21 20:55 55.79573 -4.19199 22178 ft 398 kts 211°
2026-04-21 20:55 55.77278 -4.21974 22289 ft 400 kts 212°
2026-04-21 20:55 55.75003 -4.24794 22399 ft 398 kts 213°
2026-04-21 20:55 55.72730 -4.27635 22507 ft 400 kts 213°
2026-04-21 20:56 55.70481 -4.30443 22534 ft 401 kts 212°
2026-04-21 20:56 55.68206 -4.33271 22524 ft 398 kts 213°
2026-04-21 20:56 55.65941 -4.36078 22521 ft 399 kts 213°
2026-04-21 20:56 55.63666 -4.38889 22519 ft 400 kts 212°
2026-04-21 20:57 55.61390 -4.41695 22517 ft 398 kts 212°
2026-04-21 20:57 55.59115 -4.44494 22509 ft 398 kts 212°
2026-04-21 20:57 55.56834 -4.47301 22505 ft 399 kts 212°
2026-04-21 20:57 55.54559 -4.50093 22508 ft 397 kts 213°
2026-04-21 20:58 55.52296 -4.52866 22508 ft 397 kts 213°
2026-04-21 20:58 55.50021 -4.55654 22508 ft 398 kts 212°
2026-04-21 20:58 55.47742 -4.58440 22508 ft 397 kts 213°
2026-04-21 20:58 55.45468 -4.61214 22508 ft 397 kts 213°
2026-04-21 20:59 55.43195 -4.63987 22520 ft 398 kts 213°
2026-04-21 20:59 55.40926 -4.66748 22507 ft 395 kts 213°
2026-04-21 20:59 55.38659 -4.69501 22486 ft 395 kts 213°
2026-04-21 20:59 55.36394 -4.72252 22479 ft 396 kts 213°
2026-04-21 21:00 55.34126 -4.75002 22479 ft 396 kts 213°
2026-04-21 21:00 55.31857 -4.77718 22481 ft 395 kts 211°
2026-04-21 21:00 55.29460 -4.80064 22481 ft 394 kts 205°
2026-04-21 21:00 55.27004 -4.82209 22473 ft 394 kts 205°
2026-04-21 21:01 55.24545 -4.84360 22473 ft 394 kts 205°
2026-04-21 21:01 55.22095 -4.86511 22471 ft 394 kts 205°
2026-04-21 21:01 55.19670 -4.88640 22471 ft 394 kts 205°
2026-04-21 21:01 55.17222 -4.90786 22471 ft 394 kts 205°
2026-04-21 21:02 55.14764 -4.92934 22464 ft 395 kts 205°
2026-04-21 21:02 55.12302 -4.95082 22460 ft 394 kts 206°
2026-04-21 21:02 55.09854 -4.97213 22463 ft 393 kts 207°
2026-04-21 21:02 55.07401 -4.99350 22463 ft 394 kts 207°
2026-04-21 21:03 55.04949 -5.01486 22455 ft 394 kts 207°
2026-04-21 21:03 55.02501 -5.03614 22455 ft 394 kts 207°
2026-04-21 21:03 55.00042 -5.05749 22454 ft 395 kts 207°
2026-04-21 21:03 54.97585 -5.07878 22455 ft 394 kts 207°
2026-04-21 21:04 54.95129 -5.10003 22446 ft 393 kts 207°
2026-04-21 21:04 54.92670 -5.12129 22446 ft 394 kts 206°
2026-04-21 21:04 54.90208 -5.14241 22445 ft 394 kts 205°
2026-04-21 21:04 54.87643 -5.15981 22445 ft 400 kts 199°
2026-04-21 21:05 54.84934 -5.17162 22447 ft 401 kts 193°
2026-04-21 21:05 54.82241 -5.18130 22443 ft 400 kts 194°
2026-04-21 21:05 54.79507 -5.19121 22444 ft 401 kts 194°
2026-04-21 21:05 54.76775 -5.20119 22449 ft 401 kts 194°
2026-04-21 21:06 54.74044 -5.21125 22442 ft 400 kts 194°
2026-04-21 21:06 54.71317 -5.22127 22444 ft 401 kts 194°
2026-04-21 21:06 54.68589 -5.23128 22444 ft 401 kts 194°
2026-04-21 21:06 54.65859 -5.24128 22443 ft 401 kts 194°
2026-04-21 21:07 54.63132 -5.25127 22432 ft 401 kts 194°
2026-04-21 21:07 54.60384 -5.26128 22436 ft 405 kts 195°
2026-04-21 21:07 54.57624 -5.27135 22436 ft 404 kts 195°
2026-04-21 21:07 54.54869 -5.28138 22436 ft 404 kts 195°
2026-04-21 21:08 54.52120 -5.29138 22427 ft 403 kts 195°
2026-04-21 21:08 54.49433 -5.30299 22427 ft 402 kts 201°
2026-04-21 21:08 54.46840 -5.32047 22427 ft 399 kts 208°
2026-04-21 21:08 54.44357 -5.34168 22428 ft 398 kts 210°
2026-04-21 21:09 54.41882 -5.36284 22421 ft 396 kts 210°
2026-04-21 21:09 54.39419 -5.38374 22422 ft 394 kts 210°
2026-04-21 21:09 54.36959 -5.40453 22413 ft 395 kts 210°
2026-04-21 21:09 54.34491 -5.42533 22422 ft 395 kts 210°
2026-04-21 21:10 54.32024 -5.44609 22411 ft 395 kts 210°
2026-04-21 21:10 54.29559 -5.46680 22411 ft 395 kts 210°
2026-04-21 21:10 54.27097 -5.48745 22411 ft 395 kts 210°
2026-04-21 21:10 54.24627 -5.50814 22411 ft 395 kts 210°
2026-04-21 21:11 54.22161 -5.52879 22343 ft 395 kts 210°
2026-04-21 21:11 54.19697 -5.54939 22079 ft 394 kts 209°
2026-04-21 21:11 54.17247 -5.56984 21823 ft 391 kts 209°
2026-04-21 21:11 54.14806 -5.59019 21560 ft 389 kts 209°
2026-04-21 21:12 54.12378 -5.61043 21304 ft 388 kts 208°
2026-04-21 21:12 54.09980 -5.63038 21033 ft 387 kts 209°
2026-04-21 21:12 54.07567 -5.65041 20782 ft 385 kts 210°
2026-04-21 21:12 54.05160 -5.67042 20530 ft 384 kts 209°
2026-04-21 21:13 54.02761 -5.69033 20279 ft 383 kts 209°
2026-04-21 21:13 54.00372 -5.71011 20024 ft 380 kts 210°
2026-04-21 21:13 53.97960 -5.72839 19777 ft 380 kts 202°
2026-04-21 21:13 53.95399 -5.74042 19539 ft 382 kts 193°
2026-04-21 21:14 53.92755 -5.74536 19297 ft 382 kts 184°
2026-04-21 21:14 53.90100 -5.74697 18860 ft 382 kts 184°
2026-04-21 21:14 53.87452 -5.74874 18300 ft 380 kts 183°
2026-04-21 21:14 53.84832 -5.75058 17767 ft 374 kts 182°
2026-04-21 21:15 53.82245 -5.75243 17244 ft 369 kts 182°
2026-04-21 21:15 53.79695 -5.75427 16724 ft 364 kts 181°
2026-04-21 21:15 53.77178 -5.75611 16211 ft 360 kts 181°
2026-04-21 21:15 53.74690 -5.75791 15698 ft 356 kts 180°
2026-04-21 21:16 53.72258 -5.75965 15199 ft 352 kts 180°
2026-04-21 21:16 53.69824 -5.76140 14696 ft 348 kts 180°
2026-04-21 21:16 53.67444 -5.76841 14202 ft 351 kts 197°
2026-04-21 21:16 53.65339 -5.78967 13657 ft 357 kts 219°
2026-04-21 21:17 53.63816 -5.82268 13121 ft 359 kts 241°
2026-04-21 21:17 53.63025 -5.86260 12627 ft 360 kts 255°
2026-04-21 21:17 53.62516 -5.90372 12118 ft 357 kts 257°
2026-04-21 21:17 53.62047 -5.94483 11608 ft 355 kts 257°
2026-04-21 21:18 53.61566 -5.98507 11108 ft 353 kts 256°
2026-04-21 21:18 53.61054 -6.02535 10655 ft 348 kts 256°
2026-04-21 21:18 53.60545 -6.06408 10424 ft 329 kts 255°
2026-04-21 21:18 53.60053 -6.10072 10186 ft 313 kts 255°
2026-04-21 21:19 53.59571 -6.13617 10048 ft 314 kts 255°
2026-04-21 21:19 53.59081 -6.17188 9886 ft 312 kts 255°
2026-04-21 21:19 53.58592 -6.20746 9500 ft 312 kts 255°
2026-04-21 21:19 53.58107 -6.24289 9090 ft 311 kts 255°
2026-04-21 21:20 53.57623 -6.27824 8700 ft 308 kts 255°
2026-04-21 21:20 53.57151 -6.31272 8571 ft 296 kts 254°
2026-04-21 21:20 53.56853 -6.34618 8438 ft 286 kts 272°
2026-04-21 21:20 53.57358 -6.37755 8331 ft 273 kts 302°
2026-04-21 21:21 53.58614 -6.40027 8338 ft 267 kts 331°
2026-04-21 21:21 53.60236 -6.41540 8334 ft 264 kts 339°
2026-04-21 21:21 53.61873 -6.42832 8334 ft 263 kts 340°
2026-04-21 21:21 53.63526 -6.44158 8337 ft 263 kts 338°
2026-04-21 21:22 53.65020 -6.45969 8328 ft 269 kts 315°
2026-04-21 21:22 53.66084 -6.48594 8330 ft 273 kts 302°
2026-04-21 21:22 53.67036 -6.51364 8334 ft 272 kts 302°
2026-04-21 21:22 53.67987 -6.54125 8334 ft 273 kts 302°
2026-04-21 21:23 53.68941 -6.56888 8335 ft 272 kts 302°
2026-04-21 21:23 53.69694 -6.59806 8338 ft 273 kts 282°
2026-04-21 21:23 53.69827 -6.62995 8341 ft 273 kts 266°
2026-04-21 21:23 53.69786 -6.66148 8336 ft 272 kts 267°
2026-04-21 21:24 53.69752 -6.69338 8334 ft 273 kts 267°
2026-04-21 21:24 53.69722 -6.72537 8331 ft 272 kts 267°
2026-04-21 21:24 53.69542 -6.75695 8334 ft 269 kts 251°
2026-04-21 21:24 53.68770 -6.78528 8343 ft 263 kts 233°
2026-04-21 21:25 53.67791 -6.81128 8334 ft 262 kts 233°
2026-04-21 21:25 53.66818 -6.83736 8333 ft 263 kts 233°
2026-04-21 21:25 53.65845 -6.86356 8334 ft 264 kts 233°
2026-04-21 21:25 53.64835 -6.88921 8328 ft 260 kts 224°
2026-04-21 21:26 53.63486 -6.90854 8322 ft 251 kts 203°
2026-04-21 21:26 53.61933 -6.92176 8322 ft 250 kts 200°
2026-04-21 21:26 53.60381 -6.93488 8323 ft 250 kts 200°
2026-04-21 21:26 53.58775 -6.94420 8325 ft 239 kts 177°
2026-04-21 21:27 53.57192 -6.93954 8321 ft 228 kts 149°
2026-04-21 21:27 53.55984 -6.92315 8152 ft 223 kts 123°
2026-04-21 21:27 53.55400 -6.89944 7829 ft 222 kts 97°
2026-04-21 21:27 53.55280 -6.87378 7574 ft 218 kts 95°
2026-04-21 21:28 53.55165 -6.84885 7318 ft 214 kts 95°
2026-04-21 21:28 53.55039 -6.82395 7077 ft 214 kts 95°
2026-04-21 21:28 53.54774 -6.77425 6547 ft 211 kts 96°
2026-04-21 21:29 53.54641 -6.74970 6292 ft 212 kts 96°
2026-04-21 21:29 53.54508 -6.72501 6022 ft 211 kts 96°
2026-04-21 21:29 53.54188 -6.70155 5771 ft 204 kts 116°
2026-04-21 21:29 53.53246 -6.68291 5527 ft 215 kts 142°
2026-04-21 21:30 53.51830 -6.67441 5262 ft 223 kts 171°
2026-04-21 21:30 53.50256 -6.67692 4971 ft 230 kts 181°
2026-04-21 21:30 53.48695 -6.68071 4546 ft 229 kts 178°
2026-04-21 21:30 53.47222 -6.67622 4250 ft 206 kts 144°
2026-04-21 21:31 53.46220 -6.65923 4171 ft 204 kts 116°
2026-04-21 21:31 53.45755 -6.63722 4065 ft 199 kts 101°
2026-04-21 21:31 53.45555 -6.61423 3967 ft 196 kts 96°
2026-04-21 21:31 53.45444 -6.59216 3922 ft 186 kts 96°
2026-04-21 21:32 53.45322 -6.57072 3708 ft 180 kts 96°
2026-04-21 21:32 53.45213 -6.55071 3458 ft 165 kts 96°
2026-04-21 21:32 53.45109 -6.53205 3242 ft 162 kts 96°
2026-04-21 21:32 53.45007 -6.51352 3053 ft 151 kts 96°
2026-04-21 21:33 53.44915 -6.49696 2832 ft 135 kts 96°
2026-04-21 21:33 53.44834 -6.48230 2661 ft 117 kts 96°
2026-04-21 21:33 53.44764 -6.46952 2503 ft 109 kts 97°
2026-04-21 21:33 53.44694 -6.45703 2349 ft 105 kts 96°
2026-04-21 21:34 53.44627 -6.44496 2209 ft 104 kts 96°
2026-04-21 21:34 53.44561 -6.43303 2069 ft 103 kts 96°
2026-04-21 21:34 53.44495 -6.42107 1920 ft 102 kts 96°
2026-04-21 21:34 53.44430 -6.40925 1778 ft 101 kts 96°
2026-04-21 21:35 53.44366 -6.39781 1652 ft 98 kts 96°
2026-04-21 21:35 53.44301 -6.38609 1516 ft 100 kts 96°
2026-04-21 21:35 53.44238 -6.37460 1382 ft 99 kts 96°
2026-04-21 21:35 53.44175 -6.36324 1240 ft 98 kts 95°
2026-04-21 21:36 53.44110 -6.35148 1091 ft 104 kts 94°
2026-04-21 21:36 53.44043 -6.33934 950 ft 106 kts 94°
2026-04-21 21:36 53.43974 -6.32712 804 ft 106 kts 94°
2026-04-21 21:36 53.43909 -6.31484 647 ft 105 kts 92°
2026-04-21 21:37 53.43839 -6.30287 490 ft 101 kts 92°
2026-04-21 21:37 53.43775 -6.29092 369 ft 105 kts 92°
2026-04-21 21:37 53.43708 -6.27890 258 ft 105 kts 94°
2026-04-21 21:37 53.43637 -6.26682 211 ft 95 kts 94°
2026-04-21 21:38 53.43591 -6.25780 209 ft 46 kts 95°
2026-04-21 21:38 53.43558 -6.25372 213 ft 32 kts 108°
2026-04-21 21:38 53.43481 -6.25090 214 ft 19 kts 123°
2026-04-21 21:38 53.43396 -6.25001 218 ft 14 kts 218°
2026-04-21 21:39 53.43387 -6.25173 219 ft 16 kts 274°
2026-04-21 21:39 53.43397 -6.25382 210 ft 20 kts 276°
2026-04-21 21:39 53.43407 -6.25589 210 ft 17 kts 265°
2026-04-21 21:39 53.43313 -6.25620 210 ft 17 kts 156°
2026-04-21 21:40 53.43203 -6.25538 213 ft 18 kts 155°
2026-04-21 21:40 53.43084 -6.25452 216 ft 19 kts 158°
2026-04-21 21:40 53.42964 -6.25365 215 ft 14 kts 151°
2026-04-21 21:40 53.42954 -6.25261 211 ft 10 kts 72°
2026-04-21 21:41 53.42961 -6.25171 211 ft 13 kts 94°
2026-04-21 21:41 53.42953 -6.25012 218 ft 12 kts 95°
2026-04-21 21:41 53.42946 -6.24889 210 ft 8 kts 95°
2026-04-21 21:41 53.42947 -6.24830 211 ft 2 kts 50°
2026-04-21 21:42 53.42969 -6.24818 213 ft 5 kts 12°
2026-04-21 21:42 53.43000 -6.24813 211 ft 0 kts
2026-04-21 21:42 53.43004 -6.24812 211 ft 0 kts